This is the latest recevied weather packets stored in our database for station/object HK2LS-SM. If no packets are shown the sender has not sent any weather packets the latest 10 day(s).
| Time | Temp. | Humidity | Pressure | Rain* | Wind** | Luminosity | Snow |
|---|---|---|---|---|---|---|---|
| 1778253754 | 30.56° C | 76% | 1008.1 hPa | 0 mm | - | - | - |
| 1778252486 | 31.67° C | 72% | 1008.1 hPa | 0 mm | - | - | - |
| 1778251884 | 31.67° C | 73% | 1008.1 hPa | 0 mm | - | - | - |
| 1778251583 | 31.67° C | 73% | 1008.1 hPa | 0 mm | - | - | - |
| 1778250678 | 32.22° C | 71% | 1008.1 hPa | 0 mm | - | - | - |
| 1778250377 | 32.78° C | 70% | 1008.1 hPa | 0 mm | - | - | - |
| 1778249775 | 32.78° C | 62% | 1008.1 hPa | 0 mm | - | - | - |
| 1778248870 | 31.67° C | 64% | 1008.5 hPa | 0 mm | - | - | - |
| 1778247269 | 31.11° C | 67% | 1008.5 hPa | 0 mm | - | - | - |
| 1778245733 | 31.11° C | 68% | 1008.1 hPa | 0 mm | - | - | - |
| 1778245099 | 30.56° C | 70% | 1008.1 hPa | 0 mm | - | - | - |
| 1778243261 | 29.44° C | 71% | 1008.1 hPa | 0 mm | - | - | - |
| 1778242658 | 29.44° C | 73% | 1008.1 hPa | 0 mm | - | - | - |
| 1778241724 | 28.89° C | 74% | 1007.8 hPa | 0 mm | - | - | - |
| 1778241423 | 28.89° C | 74% | 1007.8 hPa | 0 mm | - | - | - |
| 1778241122 | 28.33° C | 75% | 1007.8 hPa | 0 mm | - | - | - |
| 1778238952 | 28.33° C | 75% | 1007.5 hPa | 0 mm | - | - | - |
| 1778233571 | 28.89° C | 73% | 1006.8 hPa | 0 mm | - | - | - |
| 1778232907 | 28.89° C | 74% | 1006.8 hPa | 0 mm | - | - | - |
| 1778232606 | 28.89° C | 74% | 1006.4 hPa | 0 mm | - | - | - |
| 1778230768 | 28.89° C | 72% | 1006.1 hPa | 0 mm | - | - | - |
| 1778230166 | 28.89° C | 72% | 1006.1 hPa | 0 mm | - | - | - |
| 1778227062 | 28.89° C | 72% | 1005.8 hPa | 0 mm | - | - | - |
| 1778225829 | 29.44° C | 73% | 1006.1 hPa | 0 mm | - | - | - |
| 1778224925 | 28.89° C | 75% | 1006.1 hPa | 0 mm | - | - | - |
* Rain latest hour (hover to see other rain measurements)
** Current wind speed in m/s (hover to see current wind gust speed)